Weather History for Wharton, TX

Change the Weather History Date:

Wednesday, November 21, 2012

  Actual Average (KPSX) Record (KPSX)
Temperature  
Mean Temperature 65 °F -  
Max Temperature 80 °F 69 °F 82 °F (1990)
Min Temperature 50 °F 49 °F 35 °F (1969)
Growing Degree Days 15 (Base 50)    
Moisture  
Dew Point 52 °F    
Average Humidity 74    
Maximum Humidity 100    
Minimum Humidity 30    
Precipitation  
Precipitation 0.00 in - - ()
Sea Level Pressure  
Sea Level Pressure 30.21 in    
Wind  
Wind Speed 3 mph (ESE)    
Max Wind Speed 8 mph    
Max Gust Speed -    
Visibility 6 miles    
Events Fog    
Averages and records for this station are not official NWS values.
T = Trace of Precipitation, MM = Missing Value Source: NWS Daily Summary

Daily Weather History Graph

Daily Weather History Graph

Search for Another Location

Airport:

Trip Planner

Search our weather history database for the weather conditions in past years. The results will help you decide how hot, cold, wet, or windy it might be!

Date:

Astronomy

Nov. 21, 2012 Rise Set
Actual Time 6:53 AM CST 5:27 PM CST
Civil Twilight 6:28 AM CST 5:52 PM CST
Nautical Twilight 5:59 AM CST 6:21 PM CST
Astronomical Twilight 5:30 AM CST 6:50 PM CST
Moon 1:18 PM CST 12:42 AM CST
Length of Visible Light 11h 24m
Length of Day
10h 33m
First Quarter, 62% of the Moon is Illuminated
Nov 21
First Quarter
Nov 28
Full
Dec 6
Last Quarter
Dec 13
New
Dec 19
First Quarter

Hourly Weather History & Observations

Time (CST) Temp. Dew Point Humidity Pressure Visibility Wind Dir Wind Speed Gust Speed Precip Events Conditions
12:15 AM 55.4 °F 55.4 °F 100% 30.20 in 0.8 mi South 3.5 mph - N/A   Mist
12:35 AM 55.4 °F 55.4 °F 100% 30.20 in 0.8 mi South 3.5 mph - N/A   Mist
12:55 AM 53.6 °F 53.6 °F 100% 30.21 in 0.8 mi Calm Calm - N/A   Mist
1:15 AM 53.6 °F 53.6 °F 100% 30.21 in 0.5 mi Calm Calm - N/A Fog Fog
1:35 AM 53.6 °F 53.6 °F 100% 30.20 in 0.2 mi Calm Calm - N/A Fog Fog
1:55 AM 51.8 °F 51.8 °F 100% 30.20 in 0.2 mi Calm Calm - N/A Fog Fog
2:15 AM 51.8 °F 51.8 °F 100% 30.21 in 0.2 mi NNW 3.5 mph - N/A Fog Fog
2:35 AM 51.8 °F 51.8 °F 100% 30.20 in 0.5 mi Calm Calm - N/A Fog Fog
2:55 AM 51.8 °F 50.0 °F 94% 30.20 in 0.2 mi Calm Calm - N/A Fog Fog
3:15 AM 51.8 °F 51.8 °F 100% 30.21 in 0.2 mi NNW 3.5 mph - N/A Fog Fog
3:35 AM 51.8 °F 50.0 °F 94% 30.21 in 0.2 mi Calm Calm - N/A Fog Fog
3:55 AM 51.8 °F 51.8 °F 100% 30.21 in 0.2 mi Calm Calm - N/A Fog Fog
4:15 AM 51.8 °F 51.8 °F 100% 30.21 in 0.2 mi NW 3.5 mph - N/A Fog Fog
4:35 AM 51.8 °F 51.8 °F 100% 30.20 in 0.2 mi Calm Calm - N/A Fog Fog
4:55 AM 50.0 °F 50.0 °F 100% 30.20 in 0.2 mi Calm Calm - N/A Fog Fog
5:15 AM 50.0 °F 50.0 °F 100% 30.21 in 0.2 mi NW 3.5 mph - N/A Fog Fog
5:35 AM 50.0 °F 50.0 °F 100% 30.21 in 0.2 mi Calm Calm - N/A Fog Fog
5:55 AM 50.0 °F 50.0 °F 100% 30.21 in 0.2 mi Calm Calm - N/A Fog Fog
6:15 AM 50.0 °F 50.0 °F 100% 30.22 in 0.2 mi North 3.5 mph - N/A Fog Fog
6:35 AM 50.0 °F 50.0 °F 100% 30.23 in 0.5 mi NNW 3.5 mph - N/A Fog Fog
6:55 AM 50.0 °F 50.0 °F 100% 30.24 in 0.5 mi North 3.5 mph - N/A Fog Fog
7:15 AM 50.0 °F 50.0 °F 100% 30.24 in 0.2 mi North 3.5 mph - N/A Fog Fog
7:35 AM 50.0 °F 50.0 °F 100% 30.25 in 0.2 mi Calm Calm - N/A Fog Fog
7:55 AM 51.8 °F 51.8 °F 100% 30.25 in 0.2 mi Calm Calm - N/A Fog Fog
8:15 AM 53.6 °F 53.6 °F 100% 30.26 in 0.8 mi Calm Calm - N/A   Overcast
8:35 AM 55.4 °F 55.4 °F 100% 30.27 in 5.0 mi North 3.5 mph - N/A   Clear
8:55 AM 59.0 °F 59.0 °F 100% 30.27 in 7.0 mi North 4.6 mph - N/A   Clear
9:15 AM 60.8 °F 60.8 °F 100% 30.28 in 10.0 mi North 3.5 mph - N/A   Clear
9:35 AM 62.6 °F 62.6 °F 100% 30.28 in 10.0 mi NNW 3.5 mph - N/A   Clear
9:55 AM 69.8 °F 59.0 °F 68% 30.28 in 10.0 mi NNW 3.5 mph - N/A   Clear
10:15 AM 69.8 °F 59.0 °F 68% 30.28 in 10.0 mi North 3.5 mph - N/A   Clear
10:35 AM 73.4 °F 55.4 °F 53% 30.28 in 10.0 mi North 3.5 mph - N/A   Clear
10:55 AM 75.2 °F 55.4 °F 50% 30.27 in 10.0 mi NNW 4.6 mph - N/A   Clear
11:15 AM 77.0 °F 55.4 °F 47% 30.26 in 10.0 mi ENE 3.5 mph - N/A   Clear
11:35 AM 77.0 °F 55.4 °F 47% 30.25 in 10.0 mi NNE 5.8 mph - N/A   Clear
11:55 AM 78.8 °F 53.6 °F 42% 30.24 in 10.0 mi East 8.1 mph - N/A   Clear
12:15 PM 78.8 °F 53.6 °F 42% 30.23 in 10.0 mi East 5.8 mph - N/A   Clear
12:35 PM 78.8 °F 51.8 °F 39% 30.21 in 10.0 mi East 4.6 mph - N/A   Clear
12:55 PM 78.8 °F 50.0 °F 36% 30.21 in 10.0 mi ENE 8.1 mph - N/A   Clear
1:15 PM 78.8 °F 51.8 °F 39% 30.20 in 10.0 mi ESE 4.6 mph - N/A   Clear
1:35 PM 80.6 °F 46.4 °F 30% 30.19 in 10.0 mi ESE 5.8 mph - N/A   Scattered Clouds
1:55 PM 78.8 °F 48.2 °F 34% 30.18 in 10.0 mi Calm Calm - N/A   Clear
2:15 PM 78.8 °F 44.6 °F 30% 30.18 in 10.0 mi ENE 3.5 mph - N/A   Clear
2:35 PM 78.8 °F 46.4 °F 32% 30.17 in 10.0 mi SE 3.5 mph - N/A   Clear
2:55 PM 78.8 °F 46.4 °F 32% 30.17 in 10.0 mi Calm Calm - N/A   Clear
3:15 PM 78.8 °F 44.6 °F 30% 30.17 in 10.0 mi Calm Calm - N/A   Clear
3:35 PM 78.8 °F 44.6 °F 30% 30.16 in 10.0 mi ENE 4.6 mph - N/A   Clear
3:55 PM 78.8 °F 46.4 °F 32% 30.16 in 10.0 mi Calm Calm - N/A   Clear
4:15 PM 78.8 °F 48.2 °F 34% 30.16 in 10.0 mi SSE 4.6 mph - N/A   Clear
4:35 PM 77.0 °F 46.4 °F 34% 30.16 in 10.0 mi SE 6.9 mph - N/A   Clear
4:55 PM 73.4 °F 46.4 °F 38% 30.16 in 10.0 mi SSE 5.8 mph - N/A   Clear
5:15 PM 73.4 °F 53.6 °F 50% 30.16 in 10.0 mi South 8.1 mph - N/A   Clear
5:35 PM 71.6 °F 53.6 °F 53% 30.17 in 10.0 mi SSE 8.1 mph - N/A   Clear
5:55 PM 69.8 °F 53.6 °F 56% 30.17 in 10.0 mi SSE 8.1 mph - N/A   Clear
6:15 PM 64.4 °F 53.6 °F 68% 30.18 in 10.0 mi SSE 6.9 mph - N/A   Clear
6:35 PM 68.0 °F 53.6 °F 60% 30.18 in 10.0 mi SSE 6.9 mph - N/A   Clear
6:55 PM 68.0 °F 53.6 °F 60% 30.19 in 10.0 mi SSE 6.9 mph - N/A   Clear
7:15 PM 64.4 °F 55.4 °F 73% 30.20 in 10.0 mi SSE 5.8 mph - N/A   Clear
7:35 PM 62.6 °F 55.4 °F 77% 30.20 in 10.0 mi South 4.6 mph - N/A   Clear
7:55 PM 62.6 °F 53.6 °F 72% 30.20 in 10.0 mi South 5.8 mph - N/A   Clear
8:15 PM 62.6 °F 53.6 °F 72% 30.21 in 10.0 mi South 4.6 mph - N/A   Clear
8:35 PM 62.6 °F 53.6 °F 72% 30.21 in 10.0 mi SSW 3.5 mph - N/A   Clear
8:55 PM 62.6 °F 53.6 °F 72% 30.21 in 10.0 mi SSW 3.5 mph - N/A   Clear
9:15 PM 60.8 °F 53.6 °F 77% 30.21 in 10.0 mi Calm Calm - N/A   Clear
9:35 PM 59.0 °F 53.6 °F 82% 30.21 in 10.0 mi Calm Calm - N/A   Clear
9:55 PM 59.0 °F 51.8 °F 77% 30.21 in 10.0 mi Calm Calm - N/A   Clear
10:15 PM 57.2 °F 51.8 °F 82% 30.21 in 10.0 mi Calm Calm - N/A   Clear
10:35 PM 59.0 °F 53.6 °F 82% 30.20 in 10.0 mi SSW 4.6 mph - N/A   Clear
10:55 PM 60.8 °F 55.4 °F 82% 30.20 in 10.0 mi SSW 4.6 mph - N/A   Clear
11:15 PM 60.8 °F 55.4 °F 82% 30.19 in 10.0 mi SW 5.8 mph - N/A   Clear
11:35 PM 59.0 °F 55.4 °F 88% 30.19 in 10.0 mi East 4.6 mph - N/A   Clear
11:55 PM 55.4 °F 53.6 °F 94% 30.18 in 10.0 mi South 3.5 mph - N/A   Clear